EHI
0 0 0 0 0 0 0 0 0 0 0 0 0 0 0 0 0 0 0 0 0 0 0 1 2 3 3 3 3 3 3 3 3 2 1 0 0 0 0 0 0 0 0 0
0 0 0 0 0 0 0 0 0 0 0 0 0 0 0 0 0 0 0 0 0 0 0 0 1 2 3 3 3 3 3 3 2 2 1 0 0 0 0 0 0 0 0 0
0 0 0 0 0 0 0 0 0 0 0 0 0 0 0 0 0 0 0 0 0 0 0 0 1 2 3 3 3 3 3 1 1 1 0 0 0 0 0 0 0 0 0 0
0 0 0 0 0 0 0 0 0 0 0 0 0 0 0 0 0 0 0 0 0 0 0 0 0 1 2 3 3 3 2 1 0 0 0 0 0 0 0 0 0 0 0 0
0 0 0 0 0 0 0 0 0 0 0 0 0 0 0 0 0 0 0 0 0 0 0 0 0 1 2 3 3 3 2 1 0 0 0 0 0 0 0 0 0 0 0 0
0 0 0 0 0 0 0 0 0 0 0 0 0 0 0 0 0 0 0 0 0 0 0 0 0 0 1 3 3 3 2 1 0 0 0 0 0 0 0 0 0 0 0 0
0 0 0 0 0 0 0 0 0 0 0 0 0 0 0 0 0 0 0 0 0 0 0 0 0 0 1 3 3 3 2 0 0 0 0 0 0 0 0 0 0 0 0 0
0 0 0 0 0 0 0 0 0 0 0 0 0 0 0 0 0 0 0 0 0 0 0 0 0 1 2 3 3 3 2 1 0 0 0 0 0 0 0 0 0 0 0 0
0 0 0 0 0 0 0 0 0 0 0 0 0 0 0 0 0 0 0 0 0 0 0 0 0 1 2 3 3 3 3 2 1 0 0 0 0 0 0 0 0 0 0 0
0 0 0 0 0 0 0 0 0 0 0 0 0 0 0 0 0 0 0 0 0 0 0 0 0 1 3 3 3 3 3 2 1 0 0 0 0 0 0 0 0 0 0 0
0 0 0 0 0 0 0 0 0 0 0 0 0 0 0 0 0 0 0 0 1 0 0 0 1 2 3 3 3 4 3 2 1 0 0 0 0 0 0 0 0 0 0 0
0 0 0 0 0 0 0 0 0 0 0 0 0 0 0 0 0 0 0 0 0 0 0 0 1 2 3 3 4 4 4 2 1 0 0 0 0 0 0 0 0 0 0 0
0 0 0 0 0 0 0 0 0 0 0 0 0 0 0 0 0 0 0 0 0 0 0 0 0 1 2 2 3 3 3 2 1 0 0 0 0 0 0 0 0 0 0 0
0 0 0 0 0 0 0 0 0 0 0 0 0 0 0 0 0 0 0 1 0 0 0 0 0 0 1 1 1 1 1 1 2 1 0 0 0 0 0 0 0 0 0 0
0 0 0 0 0 0 0 0 0 0 0 0 0 0 0 0 0 0 0 0 0 0 0 0 0 0 0 0 0 0 0 1 2 2 1 0 0 0 0 0 0 0 0 0
0 0 0 0 0 0 0 0 0 0 0 0 0 0 0 0 0 0 0 0 0 0 0 0 0 0 0 0 0 0 0 0 1 2 1 0 0 0 0 0 0 0 0 0
0 0 0 0 0 0 0 0 0 0 0 0 0 0 0 0 0 0 0 0 0 0 0 1 1 1 0 0 0 0 0 0 0 1 1 0 0 0 0 0 0 0 0 0
0 0 0 0 0 0 0 0 0 0 0 0 0 0 0 0 0 0 0 0 0 0 0 1 2 2 1 0 0 0 0 0 0 0 0 0 0 0 0 0 0 0 0 0
0 0 0 0 0 0 0 0 0 0 0 0 0 0 0 0 0 0 0 0 0 0 0 0 1 1 1 0 0 0 0 0 0 0 0 0 0 0 0 0 0 0 0 0
0 0 0 0 0 0 0 0 0 0 0 0 0 0 0 0 0 0 0 0 0 0 0 0 0 0 0 0 0 0 0 0 0 0 0 0 0 0 0 0 0 0 0 0
0 0 0 0 0 0 0 0 0 0 0 0 0 0 0 0 0 0 0 0 0 0 0 0 0 0 0 0 0 0 0 0 0 0 0 0 0 0 0 0 0 0 0 0
0 0 0 0 0 0 0 0 0 0 0 0 0 0 0 0 0 0 0 0 0 0 0 0 0 0 0 0 0 0 0 0 0 0 0 0 0 0 0 0 0 0 0 0
0 0 0 0 0 0 0 0 0 0 0 0 0 0 0 0 0 0 0 0 0 0 0 0 0 0 0 0 0 0 0 0 0 0 0 0 0 0 0 0 0 0 0 0
0 0 0 0 0 0 0 0 0 0 0 0 0 0 0 0 0 0 0 0 0 0 0 0 0 0 0 0 0 0 0 0 0 0 0 0 0 0 0 0 0 0 0 0
0 0 0 0 0 0 0 0 0 0 0 0 0 0 0 0 0 0 0 0 0 0 0 0 0 0 0 0 0 0 0 0 0 0 0 0 0 0 0 0 0 0 0 0
0 0 0 0 0 0 0 0 0 0 0 0 0 0 0 0 0 0 0 0 0 0 0 0 0 0 0 0 0 0 0 0 0 0 0 0 0 0 0 0 0 0 0 0
Wind_Speed
1 3 2 5 6 5 4 3 3 4 3 3 3 4 5 6 5 6 6 6 7 7 6 4 4 5 5 4 5 4 5 4 4 3 3 3 2 1 1 1 2 3 3 3
4 2 5 4 2 2 2 1 1 2 2 3 3 4 4 6 7 7 7 7 8 6 4 4 4 4 4 5 5 5 5 5 4 3 3 3 2 1 1 1 1 2 3 3
4 5 2 2 1 1 1 3 3 3 1 1 1 3 3 3 4 4 5 6 6 8 8 6 5 4 4 4 5 5 5 5 5 4 3 3 3 2 1 1 0 0 2 3
3 3 1 1 2 3 3 4 3 2 1 2 2 2 5 3 3 4 4 4 5 6 7 7 6 6 5 5 5 5 5 5 5 5 5 5 3 2 2 2 1 0 1 2
2 1 1 2 3 3 4 3 2 2 2 1 1 2 6 1 3 6 6 6 6 7 7 7 6 7 6 5 5 5 5 4 4 5 5 5 3 2 1 1 1 1 0 1
3 2 2 3 2 2 1 3 4 3 3 2 4 4 5 4 7 5 5 5 6 6 6 5 4 4 3 3 4 4 5 4 4 5 5 5 5 4 3 2 2 1 0 0
3 3 2 1 1 2 4 5 3 3 2 5 2 3 7 6 5 7 7 6 6 6 6 5 5 4 4 4 4 5 5 4 4 4 4 5 5 5 5 4 3 2 1 1
1 4 3 1 3 3 2 6 6 3 4 4 2 4 5 3 3 4 6 6 6 6 6 6 6 5 5 5 5 5 5 4 4 4 4 4 4 3 3 4 3 3 3 3
3 4 4 2 1 5 3 3 5 5 1 1 3 3 4 1 1 2 4 5 6 6 6 6 6 5 5 5 5 5 5 4 4 4 4 4 4 3 3 3 3 2 2 2
4 2 4 2 2 0 4 5 4 3 2 2 4 4 5 5 4 3 4 5 5 5 5 5 5 6 5 5 4 4 4 5 4 4 4 4 3 3 3 3 3 2 2 2
3 3 3 2 2 4 1 2 4 3 3 4 3 6 5 7 6 6 6 6 7 7 6 5 5 5 4 4 4 3 3 3 3 3 3 3 3 2 2 2 2 2 2 2
2 4 1 4 4 3 4 5 6 4 3 4 3 7 4 4 5 6 6 5 5 6 6 5 5 4 4 4 4 4 3 3 3 3 3 3 2 2 2 2 2 2 2 2
3 5 2 5 5 3 1 3 4 4 3 3 4 7 3 0 2 3 5 5 5 5 5 4 4 4 4 4 4 3 3 3 3 3 3 3 2 3 2 2 2 2 2 2
4 4 6 7 6 4 4 4 4 4 3 4 7 7 4 2 2 3 4 5 5 5 5 5 4 4 4 3 3 3 3 3 3 3 3 3 3 3 3 2 2 2 2 2
4 2 4 5 6 4 6 6 6 6 7 7 7 7 8 7 7 6 6 5 5 5 5 5 5 4 3 3 2 2 2 2 3 3 3 3 3 3 2 2 2 1 2 2
2 2 1 3 4 4 6 7 7 7 7 7 5 7 6 3 2 3 4 6 6 6 5 5 4 4 4 5 4 3 2 2 2 3 3 3 2 2 2 2 2 1 1 1
2 3 1 4 4 3 7 7 7 5 5 6 7 7 2 2 3 4 4 5 5 6 5 5 6 6 5 4 4 5 4 2 2 3 3 2 3 3 3 2 2 2 2 1
5 3 3 2 1 6 8 3 4 5 5 4 4 3 5 5 3 2 3 4 4 4 4 5 5 5 4 4 4 4 3 3 3 3 3 3 3 3 2 2 2 2 2 2
6 6 3 2 3 7 7 4 3 4 4 3 3 3 3 3 3 2 1 2 4 4 4 4 5 5 4 4 4 3 3 2 3 3 3 3 3 3 2 2 3 2 2 2
3 4 4 3 3 6 7 4 2 3 4 3 4 5 4 4 2 4 3 2 2 2 2 3 3 3 4 4 4 4 3 3 3 4 4 3 3 3 3 3 3 2 2 2
1 1 3 4 5 8 7 3 3 3 6 2 4 5 6 5 5 4 3 2 2 3 3 3 3 3 3 4 5 4 3 3 4 3 2 2 3 3 3 2 2 2 2 1
6 4 4 4 4 9 4 2 4 6 2 2 3 4 4 3 2 2 3 3 2 3 3 3 3 2 2 3 4 4 4 4 2 2 2 2 2 2 2 2 2 2 2 2
6 8 6 8 8 6 3 5 4 3 3 2 3 3 4 3 2 2 2 2 2 2 3 2 3 2 1 2 3 4 4 3 2 2 2 2 2 2 2 2 2 2 2 2
4 2 3 4 6 5 4 3 1 2 3 3 3 4 4 4 3 3 2 2 2 2 2 2 2 2 1 1 2 3 3 3 3 3 2 2 2 2 1 1 2 2 2 3
5 2 2 4 5 3 4 4 3 2 2 2 2 3 4 4 3 3 3 3 3 3 2 2 3 2 2 1 2 2 2 3 3 2 2 2 2 2 2 2 2 3 3 4
4 5 5 6 6 4 6 5 3 3 3 4 4 2 2 4 5 4 3 3 3 3 2 2 2 2 2 2 2 2 2 3 4 2 2 2 2 2 2 1 1 2 3 4
Wind_Direction
33 79 182 206 192 185 176 168 198 229 218 164 205 217 209 203 192 191 189 187 192 200 201 173 154 149 143 149 147 149 141 143 134 122 120 116 122 116 89 96 114 118 120 116
36 260 232 206 177 151 138 145 200 269 231 186 209 242 220 201 203 196 191 190 193 195 186 168 155 146 152 156 152 150 154 152 148 146 144 143 138 131 123 102 93 122 131 128
190 238 230 180 196 175 211 187 200 219 311 345 134 307 270 237 208 198 196 192 186 183 179 173 164 162 162 160 164 164 163 154 150 139 117 100 79 65 63 68 51 142 140 139
235 255 185 160 211 174 240 219 191 184 115 275 158 257 276 230 204 215 216 197 193 187 176 175 171 168 176 177 170 161 161 155 149 138 132 138 144 156 190 187 186 191 143 139
259 224 155 200 234 194 224 225 200 204 175 285 256 179 276 231 215 230 221 204 199 189 178 178 178 175 178 171 164 162 151 149 152 149 147 148 148 164 162 144 145 147 105 129
250 248 184 203 235 201 155 40 29 46 75 278 232 175 262 227 214 212 210 199 190 185 173 166 157 146 154 150 145 148 143 145 155 156 155 155 157 159 148 154 163 174 155 120
315 305 282 151 53 358 75 78 35 8 2 255 235 172 241 235 214 193 187 188 180 170 159 149 142 142 147 149 157 154 151 156 163 160 165 168 171 171 171 178 183 179 175 185
201 278 268 217 173 184 170 137 153 189 225 274 318 220 248 243 212 182 173 169 164 166 168 162 162 160 161 162 164 161 160 163 168 170 176 174 174 174 182 182 178 187 195 200
178 256 287 255 186 145 142 169 172 148 220 262 279 283 303 254 144 136 153 151 166 174 177 175 167 163 165 164 166 168 167 166 175 181 177 171 178 179 183 182 173 181 193 190
159 234 283 298 50 33 159 153 98 117 171 255 276 247 233 224 213 191 180 174 177 173 176 177 171 169 170 168 163 158 162 170 173 177 182 177 188 188 180 169 174 182 190 182
134 158 302 349 191 211 169 151 127 136 167 169 246 262 227 202 200 193 193 183 178 176 179 180 178 174 167 155 149 147 154 150 156 172 174 164 172 168 155 158 179 183 184 170
144 126 234 265 271 224 182 182 149 157 229 187 198 264 279 193 193 184 181 177 177 177 177 173 168 160 158 156 155 155 158 156 165 165 153 155 153 144 151 171 178 171 177 177
125 114 74 337 332 341 247 200 167 149 144 181 198 262 321 166 166 172 171 176 174 166 164 161 157 161 166 165 165 165 164 171 169 154 148 147 147 147 162 184 183 171 164 173
115 128 169 198 225 234 249 244 199 162 182 222 226 243 273 261 228 209 183 179 174 168 168 166 168 171 171 168 169 167 167 166 157 149 148 154 167 171 179 176 170 167 164 176
104 156 214 233 240 243 243 244 222 209 205 210 236 229 240 222 215 206 186 176 169 172 177 178 176 173 167 166 169 162 162 167 159 153 160 178 182 170 160 163 173 169 169 178
94 166 245 278 261 262 266 255 239 231 224 225 234 246 249 230 197 171 179 175 177 187 190 184 175 172 175 178 177 163 160 175 157 160 180 185 172 168 169 179 177 164 176 181
158 154 168 269 296 326 270 242 223 226 223 201 219 235 213 176 181 186 182 171 180 188 187 179 182 186 187 188 181 177 176 167 157 167 183 186 177 178 193 185 169 179 189 178
161 153 153 233 335 243 249 248 211 217 244 226 215 206 183 186 183 159 159 168 178 185 182 185 185 186 186 179 177 175 164 162 169 176 184 189 185 186 186 181 196 204 194 192
164 153 149 162 235 272 284 263 199 198 259 243 185 171 161 138 77 10 280 173 181 183 184 191 188 179 171 172 171 155 157 163 177 194 196 195 185 184 184 190 213 208 187 203
104 119 136 161 203 243 254 260 215 139 259 261 173 169 171 130 125 251 241 188 162 149 155 166 163 149 159 175 160 149 169 175 201 211 205 193 182 180 192 199 210 201 183 201
107 112 165 192 225 259 260 270 109 166 240 231 163 160 160 174 198 209 183 173 162 153 152 140 134 143 172 165 148 153 175 202 217 214 199 181 181 187 192 191 194 184 184 180
180 179 195 174 211 254 261 135 177 216 218 162 160 160 160 175 167 162 165 157 143 138 132 131 131 147 160 152 147 160 200 218 208 191 185 190 198 202 179 172 188 186 176 176
200 191 188 193 217 243 232 207 216 173 173 183 177 181 159 159 169 168 162 142 142 145 141 138 140 141 132 155 159 184 218 211 187 172 184 190 193 195 183 178 183 184 187 193
257 179 167 239 258 260 266 270 265 210 208 209 185 170 158 165 171 168 165 164 163 160 161 147 132 135 204 228 198 212 219 193 172 176 193 185 178 193 208 203 194 194 202 205
230 189 199 249 270 288 275 250 232 236 216 190 178 173 167 156 163 176 183 187 186 187 182 164 162 181 219 233 241 232 213 184 180 193 206 200 191 192 209 223 224 219 222 217
213 192 193 232 232 215 245 252 235 201 211 194 172 171 174 169 178 180 190 198 187 187 186 178 187 197 215 212 230 238 208 185 184 196 209 207 198 202 209 216 291 296 266 269